Tracking 30415 objects as of 14-May-2025
HD Live streaming from Space Station
objects crossing your sky now

THORAD AGENA D DEB

Track THORAD AGENA D DEB now!
10-day predictions


NORAD ID: 42531
Int'l Code: 1970-025SM
Perigee: 1,039.3 km
Apogee: 1,118.9 km
Inclination: 99.8 °
Period: 106.7 minutes
Semi major axis: 7450 km
RCS: Unknown
Launch date: April 8, 1970
Source: United States (US)
Launch site: AIR FORCE WESTERN TEST RANGE (AFWTR)

Note: This is SATELLITE DEBRIS
Your satellite tracking list
Your tracking list is empty




NASA's NSSDC Master Catalog

Two Line Element Set (TLE):
1 42531U 70025SM  25133.14223704  .00000271  00000-0  48994-3 0  9993
2 42531  99.7608 251.2643 0053402 189.0730 295.9867 13.50080824564823
Source of the keplerian elements: AFSPC